[Iaude] MPEC B18: 2006 QF181 [a=44.61,e=0.07,i=2.7,H=7.0]

mpec at si.edu mpec at si.edu
Wed Jan 18 11:05:24 EST 2017


M.P.E.C. 2017-B18                                Issued 2017 Jan. 18, 16:01 UT
 
     The Minor Planet Electronic Circulars contain information on unusual
         minor planets and routine data on comets.  They are published
    on behalf of Division F of the International Astronomical Union by the
          Minor Planet Center, Smithsonian Astrophysical Observatory,
                          Cambridge, MA 02138, U.S.A.

             Prepared using the Tamkin Foundation Computer Network

                              MPC at CFA.HARVARD.EDU
            URL http://www.minorplanetcenter.net/    ISSN 1523-6714


                                  2006 QF181
 
Additional Observations:
     K06QI1F @C2013 08 05.50093 00 46 41.029+02 38 53.99         23.1 rqEB018568
     K06QI1F @C2013 08 05.55416 00 46 40.941+02 38 53.28         23.2 rqEB018568
     K06QI1F @C2013 08 08.47981 00 46 35.508+02 38 09.70         23.4 rqEB018568
     K06QI1F @C2013 08 08.51863 00 46 35.441+02 38 09.00         23.5 rqEB018568
     K06QI1F @C2013 08 31.56492 00 45 33.115+02 30 32.93         23.9 rqEB018568
     K06QI1F @C2013 09 01.45046 00 45 30.135+02 30 12.14         23.5 rqEB018568
     K06QI1F @C2013 09 01.48940 00 45 30.008+02 30 11.48         23.7 rqEB018568
     K06QI1F @C2013 09 01.49828 00 45 29.970+02 30 11.11         23.4 rqEB018568
     K06QI1F @C2013 09 05.42994 00 45 16.233+02 28 35.82         23.3 rqEB018568
     K06QI1F @C2013 09 05.46880 00 45 16.097+02 28 34.80         23.4 rqEB018568
     K06QI1F @C2013 09 29.36094 00 43 41.386+02 18 02.39         23.2 rqEB018568
     K06QI1F @C2013 09 29.39977 00 43 41.221+02 18 01.37         23.4 rqEB018568
     K06QI1F @C2013 09 29.44359 00 43 41.036+02 18 00.51         23.7 rqEB018568
     K06QI1F @C2013 09 29.44819 00 43 41.011+02 18 00.02         23.2 rqEB018568
     K06QI1F @C2013 09 29.45297 00 43 40.995+02 17 59.81         23.3 rqEB018568
     K06QI1F @C2013 09 29.45785 00 43 40.969+02 17 59.71         23.6 rqEB018568
     K06QI1F @C2013 09 29.46414 00 43 40.946+02 17 59.62         23.7 rqEB018568
     K06QI1F @C2013 09 29.46913 00 43 40.915+02 17 59.44         23.4 rqEB018568
     K06QI1F @C2013 09 29.50184 00 43 40.777+02 17 58.55         23.3 rqEB018568
     K06QI1F @C2013 10 05.35958 00 43 16.020+02 15 18.58         23.5 rqEB018568
     K06QI1F @C2013 10 06.36797 00 43 11.745+02 14 51.18         23.2 rqEB018568
     K06QI1F @C2013 10 06.43244 00 43 11.466+02 14 49.41         23.2 rqEB018568
     K06QI1F @C2013 10 07.35479 00 43 07.578+02 14 24.36         23.4 rqEB018568
     K06QI1F @C2013 10 09.49249 00 42 58.530+02 13 26.63         23.4 rqEB018568
     K06QI1F @C2013 11 27.29243 00 40 10.062+01 56 37.30         23.5 rqEB018568
     K06QI1F @C2013 11 27.33867 00 40 09.957+01 56 36.76         23.6 rqEB018568
     K06QI1F @C2013 12 05.24094 00 39 55.317+01 55 23.33         23.4 rqEB018568
     K06QI1F @C2014 06 25.60057 00 51 16.467+03 08 13.57         23.4 rqEB018568
     K06QI1F @C2014 06 26.59942 00 51 18.028+03 08 19.84         23.5 rqEB018568
     K06QI1F @C2014 07 23.57151 00 51 29.754+03 07 58.29         23.3 rqEB018568
     K06QI1F @C2014 07 27.55192 00 51 26.523+03 07 24.38         23.5 rqEB018568
     K06QI1F @C2014 08 24.49767 00 50 31.116+03 00 10.12         23.4 rqEB018568
     K06QI1F @C2014 08 28.46980 00 50 19.103+02 58 44.50         23.4 rqEB018568
     K06QI1F @C2014 10 23.32666 00 46 37.936+02 34 35.79         23.3 rqEB018568
     K06QI1F @C2014 10 27.29329 00 46 22.181+02 32 59.44         22.9 rqEB018568
     K06QI1F @C2014 11 24.27113 00 44 50.603+02 24 05.19         23.2 rqEB018568
     K06QI1F @C2014 11 25.29743 00 44 48.095+02 23 51.82         23.1 rqEB018568
     K06QI1F @C2015 01 17.23338 00 44 33.046+02 24 47.23         23.3 rqEB018568
     K06QI1F @C2015 08 20.51481 00 55 18.126+03 28 24.91         23.4 rqEB018568
     K06QI1F @C2015 10 12.27435 00 52 01.372+03 06 29.13         23.2 rqEB018568
     K06QI1F @C2015 10 12.27943 00 52 01.342+03 06 29.15         25.2 uqEB018568
     K06QI1F @C2015 10 12.33158 00 52 01.115+03 06 27.22         24.7 uqEB018568
     K06QI1F @C2015 10 12.42687 00 52 00.722+03 06 25.00         23.4 rqEB018568
     K06QI1F @C2015 12 07.39898 00 48 57.524+02 48 35.87         23.5 wqEB018568
     K06QI1F @C2015 12 31.22795 00 48 42.295+02 48 10.17         23.7 wqEB018568
 
Observer details:
568 Mauna Kea.  Observers M. T. Bannister, J. J. Kavelaars, B. J. Gladman,
    J.-M. Petit, T. Burdullis.  Measurers S. D. J. Gwyn, Y.-T. Chen.  3.6-m
    Canada-France-Hawaii Telescope + CCD.
 
Orbital elements:
2006 QF181
Epoch 2017 Feb. 16.0 TT = JDT 2457800.5                 MPC
M 277.39710              (2000.0)            P               Q
n   0.00330803     Peri.  329.20211     -0.27793468     -0.96007400
a  44.6090524      Node   136.91228     +0.89053838     -0.26992701
e   0.0746547      Incl.    2.66682     +0.36013013     -0.07346648
P 298              H    7.0           G   0.15           U   2
Residuals in seconds of arc
060821 807  0.1-  0.0     130929 568  0.0   0.1-    140723 568  0.2+  0.0
060821 807  0.1-  0.1+    130929 568  0.0   0.2-    140727 568  0.0   0.0
060822 807  0.1+  0.0     130929 568  0.0   0.1-    140824 568  0.0   0.1+
130805 568  0.1-  0.0     130929 568  0.0   0.0     140828 568  0.1-  0.1+
130805 568  0.0   0.1+    130929 568  0.1-  0.1-    141023 568  0.0   0.1+
130808 568  0.0   0.0     130929 568  0.1-  0.1-    141027 568  0.2-  0.1+
130808 568  0.2+  0.1-    131005 568  0.0   0.0     141124 568  0.1+  0.1-
130831 568  0.1-  0.2-    131006 568  0.0   0.0     141125 568  0.0   0.1+
130901 568  0.0   0.1-    131006 568  0.1-  0.0     150117 568  0.0   0.1-
130901 568  0.1+  0.2+    131007 568  0.1+  0.1-    150820 568  0.1+  0.1+
130901 568  0.0   0.0     131009 568  0.1+  0.2-    151012 568  0.0   0.1+
130905 568  0.0   0.1-    131127 568  0.1+  0.0     151012 568  0.2-  0.3+
130905 568  0.1+  0.1-    131127 568  0.0   0.0     151012 568  0.2-  0.3-
130929 568  0.0   0.1-    131205 568  0.2+  0.0     151012 568  0.1+  0.1+
130929 568  0.0   0.0     140625 568  0.0   0.0     151207 568  0.0   0.1+
130929 568  0.1+  0.3+    140626 568  0.0   0.1-    151231 568  0.0   0.1+

Ephemeris:
2006 QF181               a,e,i = 44.61, 0.07, 3                  q = 41.279
Date    TT    R. A. (2000) Decl.     Delta      r     Elong.  Phase     V
2016 12 19    00 53 16.2 +03 14 20  44.1540 44.4389   106.2     1.2    23.6
...
2017 01 03    00 53 15.1 +03 15 00  44.4088 44.4360    90.9     1.3    23.7
...
2017 01 11    00 53 22.6 +03 16 11  44.5463 44.4344    82.8     1.3    23.7
...
2017 01 17    00 53 31.7 +03 17 27  44.6480 44.4333    76.8     1.2    23.7
2017 01 18    00 53 33.5 +03 17 42  44.6647 44.4331    75.8     1.2    23.7
2017 01 19    00 53 35.4 +03 17 56  44.6814 44.4329    74.8     1.2    23.7
...
2017 01 25    00 53 48.6 +03 19 37  44.7795 44.4317    68.7     1.2    23.7
...
2017 02 02    00 54 10.5 +03 22 17  44.9041 44.4302    60.7     1.1    23.7
...
2017 02 17    00 55 04.0 +03 28 29  45.1107 44.4273    45.8     0.9    23.7

A. U. Tomatic                (C) Copyright 2017 MPC           M.P.E.C. 2017-B18




More information about the Iaude mailing list